Погода Корнесты

Погода Корнесты : погода сейчас, прогноз погоды и архив. Всё, что Вы хотите узнать о погоде Корнесты!

Поиск расширенной информации на нашем сайте:

Полезная информация:

Другие новости

Новости СМИ2

Главная страница сайта

Новости сайта

03.07.2017

Напоминаем, что на нашем специализированном сайте Метеоцентр.Азия вы можете получить высокодетализированные автоматические прогнозы погоды по пунктам России, СНГ и мира в авиационном формате (включающие направление и скорость ветра, видимость, явления погоды, количество и форму облачности, нижнюю и верхнюю границу облачности).

Рекомендуем:

Погода Корнесты - сегодня

Время (UTC), дата Ветер
(°,м/с) 
Видим.   Явления Облачность Т
(°С)
Тd
(°С)
f(%) Тe
(°С)
Pmin
(гПа)
dP
(гПа)
Po
(мм)
O2
(г/м3)
Тmin Tmax R s Состояние
почвы
12 20.03.19 020 (С) 10 км    9/6 600 м средняя 
[Sc|Ac trans]
+9.8 +4.4 69 +9  1029.1  0.5  751  291           
15 20.03.19 020 (С) 10 км    10/10 600 м 
[Sc]
+8.9 +2.9 66 +8  1029.8  0.6  751  293           
18 20.03.19 020 (С) 10 км    9/6 400 м средняя 
[Sc|Ac trans]
+8.1 +0.8 60 +7  1031.4  1.4  752  294    +10.2       
21 20.03.19 330 (СЗ) 10 км    8/8 600 м 
[Sc]
+5.1 +1 75 +6  1032.6  0.9  753  298           
00 21.03.19 тихо ()   10 км    8/8 600 м 
[Sc]
+4.5 +1.5 81 +5  1033.2  0.5  753  298           
03 21.03.19 тихо ()   10 км  гроза, пыльная буря  3/3 600 м 
[Sc]
+2 +1.3 95 +2  1033.1  -0.4  753  301           
06 21.03.19 тихо ()   4000 м  дымка  4/0 верхняя 
[Ci fib]
+2.6 +2.3 98 +3  1034  754  300  +1.2         
09 21.03.19 300 (СЗ) 4000 м  дымка  9/0 верхняя 
[Cs]
+9.3 +1.7 59 +9  1032.6  -0.7  753  293           
12 21.03.19 340 (С) 10 км    9/1 1000 м верхняя 
[Cu hum|Cs]
+12.1 -3.7 33 +12  1030.4  -1.9  752  290           
15 21.03.19 340 (С) 4{12}  10 км    8/6 600 м верхняя 
[Sc|Ci fib]
+12.1 -4.1 32 +12  1028.9  -1.4  751  290           
18 21.03.19 350 (С) 10 км    9/9 600 м 
[Sc]
+8.8 -2.2 46 +9  1029.8  0.5  751  293    +12.9       
21 21.03.19 350 (С) 10 км    9/9 600 м 
[Sc]
+8.6 +0.8 58 +9  1030.1  0.3  751  293           
00 22.03.19 360 (С) 10 км    8/8 600 м 
[Sc]
+6.9 +3.2 77 +6  1030.1  -0.2  751  295           
03 22.03.19 320 (СЗ) 10 км    8/8 600 м 
[Sc]
+6 +4 87 +6  1029.8  -0.3  751  295           
06 22.03.19 350 (С) 4000 м  дымка  8/4 360 м средняя 
[Sc|Ac trans]
+7.1 +4.8 85 +7  1029.6  -0.1  751  294  +5.5         
09 22.03.19 350 (С) 10 км    9/3 600 м верхняя 
[Cu hum|Cs]
+12.2 +4.4 59 +12  1028.1  -1  750  289           
12 22.03.19 350 (С) 6{13}  10 км    10/10 600 м 
[Sc]
+14 +4.8 54 +13  1025.7  -2.1  748  286           
15 22.03.19 350 (С) 6{13}  10 км    10/10 600 м 
[Sc]
+13.4 +6 61 +12  1024.1  -1.6  747  286           
18 22.03.19 360 (С) 5{13}  10 км    10/10 600 м 
[Sc]
+11.9 +6 67 +11  1025  0.7  748  288    +14.6       
21 22.03.19 350 (С) 10 км    4/4 600 м 
[Sc]
+9.7 +4.9 72 +9  1025.5  0.3  748  290           
00 23.03.19 040 (СВ) 10 км    8/8 600 м 
[Sc]
+7.7 -0.3 57 +6  1026  0.2  748  293           
03 23.03.19 030 (СВ) 10 км    3/3 600 м 
[Sc]
+4.7 -6.5 44 +3  1025.7  -0.6  748  297           
06 23.03.19 010 (С) 4{12}  10 км    8/0 400 м верхняя 
[Cs]
+4.9 -6.3 44 +3  1026.4  0.7  748  297  +3.9         
09 23.03.19 010 (С) 6{12}  10 км    1/0 верхняя 
[Ci fib]
+8.8 -8.3 29 +7  1025.5  -0.5  748  293           
12 23.03.19 020 (С) 6{13}  10 км    ясно 
+11.7 -8.7 23 +10  1023.8  -1.4  747  289           
Время (UTC), дата Ветер
(°,м/с) 
Видим.   Явления Облачность Т
(°С)
Тd
(°С)
f(%) Тe
(°С)
Pmin
(гПа)
dP
(гПа)
Po
(мм)
O2
(г/м3)
Тmin Tmax R s Состояние
почвы

Для получения пояснительной информации подведите курсор к названию столбца.

ПОГОДА Корнесты - архив

Всё, что Вы хотите узнать о погоде Корнесты - удобно и подробно!

Выберите нужную дату (начиная с 1 января 2018* года) и нажмите кнопку "Найти".
Будут отображены архивные сводки погоды по пункту Корнесты, начиная с указанной даты.


Отображать данные в формате CSV (для использования в таблицах Excel)


Внимание! Наш архив погоды предназначен исключительно для личного некоммерческого использования в познавательных целях. Если Вам необходимы официальные справки о состоянии погоды (для производственных, юридических, коммерческих и т.п. целей), обращайтесь в органы Росгидромета.

*Примечание: данная дата относится к архиву по метеостанциям СССР (Россия, СНГ, Балтия).
Архив по метеостанциям Зарубежной Европы и Азии (кроме Китая) хранится 10 дней, по другим регионам земного шара (Китай, Африка, Америка, Австралия, Океания) - 1 день.

Корнесты - район местоположения метеостанции


Название, широта, долгота, высота метеостанции:
Корнесты 47.3°ш. 28.1°д. 232 м над ур. моря [Молдавия]

Дополнительная информация

В oтличие oт бoльшинства пoгoдных сайтoв мы публикуем пoдрoбную метеoинфoрмацию в детальнoм прoфессиoнальнoм фoрмате.

Характеристики температуры и влажнoсти вoздуха измеряются на высoте 2 м в тени вдали oт зданий и деревьев.
Скoрoсть ветра измеряется на высoте 10 м (на урoвне рoста челoвека скoрoсть ветра ниже в 1.5-2 раза). Если метеoстанция нахoдится в гoрoде или в лесу, тo скoрoсть ветра занижена на 2-4 м/с пo сравнению с oткрытым местoм. Скoрoсть ветра над акватoриями крупных рек и oзёр, а также на вершинах хoлмoв на 2-5 м/с выше, чем в oбычных услoвиях.
Атмoсфернoе давление в разных тoчках местнoсти мoжет значительнo oтличаться oт давления на метеoстанции, в зависимoсти oт услoвий рельефа (при пoдъёме на 10 м давление пoнижается примернo на 1 мм рт.ст.).